Location: Olsztyn
(53.7767°N, 20.4765°E)
Time: 22:03:57
(UTC+01:00)

Envisat - Pass Details

Date: 27 November 2022
Orbit: 763 x 765 km, 98.2° (Epoch: 07 February)

Event Time Altitude Azimuth Distance (km) Brightness Sun altitude
Rises 05:40:33 0° 8° (N) 3,249 6.2 -14.8°
Reaches altitude 10° 05:43:17 10° 354° (N) 2,318 5.3 -14.4°
Maximum altitude 05:47:09 22° 305° (NW) 1,619 4.1 -13.8°
Enters shadow 05:48:37 20° 281° (W) 1,734 4.2 -13.6°
